Back to catalog

COSMOS 2251 DEB

AliveLEO
NORAD 34611·DEBRIS·🇷🇺 Russia

Launched Jun 16, 1993 from Plesetsk Cosmodrome

Loading…

Next Passes (next 24 hours)

TLE

FreshSource: Space-Track

Epoch: Sep 14, 2026, 21:33 UTC

1 34611U 93036WG  26257.89804498  .00003959  00000-0  60562-3 0  9996
2 34611  74.0501 284.3489 0024072 258.9893 159.7756 14.73901857924540

Track COSMOS 2251 DEB in real time with AllMySat

Download on the App Store